Location: Newark
(32.2028°N, 95.8492°W)
Time: 05:12:20
(UTC+00:00)

LightSail 2 - Visible Passes

Search period start: 20 September 2019 00:00
Search period end: 30 September 2019 00:00
Orbit: 700 x 732 km, 24.0° (Epoch: 19 September)

Date Brightness Start Highest point End Pass type
(mag) Time Alt. Az. Time Alt. Az. Time Alt. Az.
20 Sep 7.1 10:32:33 14° S 10:34:14 16° SSE 10:37:19 10° SE visible
21 Sep 7.7 09:38:59 11° SE 09:38:59 11° SE 09:39:18 10° SE visible
21 Sep 6.6 11:18:01 10° SW 11:22:11 26° S 11:26:22 10° ESE visible
22 Sep 6.7 10:24:24 22° S 10:25:07 22° SSE 10:29:01 10° ESE visible
23 Sep 7.7 09:30:47 13° SE 09:30:47 13° SE 09:31:32 10° ESE visible
23 Sep 6.3 11:09:49 15° SW 11:13:07 30° S 11:17:33 10° ESE visible
24 Sep 6.4 10:16:10 28° SSE 10:16:10 28° SSE 10:20:20 10° ESE visible
25 Sep 7.8 09:22:31 12° ESE 09:22:31 12° ESE 09:23:02 10° ESE visible
25 Sep 6.2 11:01:33 21° SW 11:04:03 32° S 11:08:34 10° ESE visible
26 Sep 6.4 10:07:54 29° SSE 10:07:54 29° SSE 10:11:25 10° ESE visible
27 Sep 6.2 10:53:17 25° SW 10:54:59 31° S 10:59:26 10° ESE visible
28 Sep 6.7 09:59:40 25° SE 09:59:40 25° SE 10:02:22 10° ESE visible
28 Sep 6.6 11:38:59 10° WSW 11:42:58 23° SSW 11:46:57 10° SE visible
29 Sep 6.3 10:45:06 25° SSW 10:45:53 27° S 10:50:06 10° SE visible
